Location: Saint-Restitut
(44.3351°N, 4.7915°E)
Time: 08:32:19
(UTC+00:00)

SKYMED 2 - Pass Details

Date: 03 February 2023
Orbit: 621 x 623 km, 97.9° (Epoch: 26 March)

Event Time Altitude Azimuth Distance (km) Brightness Sun altitude
Rises 17:53:06 0° 12° (NNE) 2,918 6.8 -11.1°
Reaches altitude 10° 17:55:18 10° 12° (NNE) 2,006 5.9 -11.5°
Maximum altitude 17:59:40 86° 287° (WNW) 632 3.6 -12.3°
Drops below altitude 10° 18:04:00 10° 196° (SSW) 1,988 6.5 -13.0°
Sets 18:06:11 0° 196° (SSW) 2,890 7.4 -13.4°
